Location: Ahausen
(50.4985°N, 8.2722°E)
Time: 01:10:19
(UTC+00:00)

AO-92 - Visible Passes

Search period start: 26 June 2022 00:00
Search period end: 06 July 2022 00:00
Orbit: 472 x 482 km, 97.4° (Epoch: 25 June)

Date Brightness Start Highest point End Pass type
(mag) Time Alt. Az. Time Alt. Az. Time Alt. Az.
26 Jun ? 20:26:02 10° ESE 20:28:52 23° ENE 20:31:43 10° NNE visible
26 Jun ? 21:59:31 14° SSW 22:02:03 31° W 22:05:16 10° NNW visible
27 Jun ? 21:32:36 16° S 21:35:17 64° WSW 21:38:51 10° NNW visible
28 Jun ? 21:05:40 14° SSE 21:08:38 61° ENE 21:12:09 10° N visible
28 Jun ? 22:40:52 10° WSW 22:42:19 12° W 22:43:47 10° WNW visible
29 Jun ? 20:38:54 10° SE 20:42:03 31° ENE 20:45:13 10° N visible
29 Jun ? 22:12:55 12° SW 22:15:23 23° W 22:18:16 10° NW visible
30 Jun ? 21:45:58 16° SSW 21:48:33 44° W 21:51:59 10° NNW visible
01 Jul ? 21:19:00 16° SSE 21:21:48 87° ENE 21:25:23 10° NNW visible
02 Jul ? 20:52:02 12° SE 20:55:08 42° ENE 20:58:32 10° N visible
02 Jul ? 22:26:16 10° SW 22:28:38 17° W 22:31:01 10° NW visible
03 Jul ? 20:25:42 10° ESE 20:28:32 23° ENE 20:31:24 10° NNE visible
03 Jul ? 21:59:14 15° SSW 22:01:42 31° W 22:04:57 10° NNW visible
04 Jul ? 21:32:15 17° S 21:34:52 65° WSW 21:38:26 10° NNW visible
05 Jul ? 21:05:14 14° SSE 21:08:07 60° ENE 21:11:39 10° N visible
05 Jul ? 22:40:15 10° WSW 22:41:47 12° W 22:43:21 10° WNW visible
